SKY MUSTER 2 (41794 NORAD) Tracking and Keplerian Element Data

This shows tracking and keplerian element data for the satellite.

Feedback or suggestion? Click here.




ElementValue
Catalog41794
NameSKY MUSTER 2
Epoch Orbit810
Epoch Day350.3617418
Epoch Year2018
RAAN310.8289
Inclination0.0132
Eccentricity0.0001639
Argument of Perigee308.5657
Mean Anonmoly100.6027
Mean Motion1.00272417
Decay Rate-2.3E-06
L11 41794U 16060B 18350.36174180 -.00000230 00000-0 00000+0 0 9990
L22 41794 0.0132 310.8289 0001639 308.5657 100.6027 1.00272417 8106

Live tracking and technical data element details for SKY MUSTER 2 (NORAD 41794). SKY MUSTER 2 can be tracked NOW for your location showing map with azimuth and elevation plus other details from your city location.

Track the satellite on the map from your city or location and see movement details for azimuth, elevation, latitude, longitude, range, height, and movement on the map or in text.







IsCatalogInMostPopularTable: catalog: 41794, numindb: 115
Update: records affected: 1



GetName: 41794 SKY MUSTER 2

Hit Count: updated at: Tue, 18 Dec 2018 21:47:42 GMT